Regional Weather Roundup
Issued by NWS

Home | Current Version | Previous Version | Graphics & Text | Print | Product List | Glossary On
Versions: 1 2 3 4 5 6 7 8 9 10 11 12 13 14 15 16 17 18 19 20 21 22 23 24 25 26 27 28 29 30 31 32 33 34 35 36 37 38 39 40 41 42 43 44 45 46 47 48 49 50
000
ASUS43 KMKX 242021
RWRWI

WISCONSIN REGIONAL WEATHER ROUNDUP
NATIONAL WEATHER SERVICE MILWAUKEE/SULLIVAN WI
300 PM CDT THU MAY 24 2018

NOTE: "FAIR" INDICATES FEW OR NO CLOUDS BELOW 12,000 FEET WITH NO
SIGNIFICANT WEATHER AND/OR OBSTRUCTIONS TO VISIBILITY.

WIZ001-002-006>008-014>016-023>028-242100-
NORTHWEST WISCONSIN

CITY           SKY/WX    TMP DP  RH WIND       PRES   REMARKS
SUPERIOR ARPT  CLOUDY    56  53  88 E7        29.96F
ASHLAND        FAIR      80  68  66 SE6       29.97F HX  83
HAYWARD        FAIR      84  68  58 SE8       29.97F HX  87
SIREN          PTSUNNY  N/A N/A N/A S14         N/A
CUMBERLAND     FAIR      84  59  42 S17G28    29.95F HX  84
RICE LAKE      FAIR      88  60  39 S14       29.96F HX  88
CHETEK         FAIR      87  65  48 S14       29.96F HX  89
LADYSMITH      FAIR      86  65  49 S10G18    30.00F HX  88
EAU CLAIRE     FAIR      88  64  44 S20       29.97F HX  89
MENOMONIE      FAIR      89  63  40 SE18      29.96F HX  90
NEW RICHMOND   FAIR      87  57  35 S24G30    29.95F HX  86
OSCEOLA        FAIR      91  57  31 S16G26    29.95F HX  89
$$

WIZ003>005-009-010-017-018-242100-
NORTH CENTRAL WISCONSIN

CITY           SKY/WX    TMP DP  RH WIND       PRES   REMARKS
MANITOWISH WTR CLOUDY    78  65  64 S7        30.02F HX  80
ARBOR VITAE    FAIR      80  64  59 S13G18    30.03F HX  81
WOODRUFF       FAIR      80  64  59 S13G18    30.03F HX  81
RHINELANDER    FAIR      83  64  52 SW9       30.05F HX  84
EAGLE RIVER    PTSUNNY   80  60  50 S8        30.03F HX  81
LAND O LAKES   FAIR      80  64  57 S7        30.05F HX  82
PHILLIPS       FAIR      82  65  56 S9        30.00F HX  84
TOMAHAWK       PTSUNNY   82  64  55 S5        30.03F HX  83
MEDFORD        PTSUNNY   83  64  51 S17       30.02F HX  84
MERRILL        FAIR      82  65  56 S8        30.04F HX  83
$$

WIZ029-030-035-036-043>047-242100-
CENTRAL WISCONSIN

CITY           SKY/WX    TMP DP  RH WIND       PRES   REMARKS
WAUSAU         PTSUNNY   85  62  46 S15       30.03F HX  85
MOSINEE        PTSUNNY   82  63  51 S12       30.07F HX  83
MARSHFIELD     FAIR      85  64  49 S14       30.04F HX  86
STEVENS POINT  FAIR      84  60  44 S14       30.06F HX  84
WAUPACA        FAIR      87  59  38 SE9       30.06S HX  86
WAUTOMA        PTSUNNY   85  62  46 SW12      30.07F HX  85
WISC RAPIDS    FAIR      86  60  41 S10       30.06F HX  86
CAMP DOUGLAS   PTSUNNY   86  64  48 S8        30.05F HX  87
$$

WIZ011>013-019>022-031-037>040-048>050-242100-
NORTHEAST WISCONSIN

CITY           SKY/WX    TMP DP  RH WIND       PRES   REMARKS
ANTIGO         FAIR      81  60  49 SW13      30.06F HX  81
SHAWANO        FAIR      86  58  38 SW7       30.04F HX  85
OCONTO         FAIR      83  57  39 S9        30.05F HX  83
STURGEON BAY   FAIR      77  53  43 SE13      30.09F
GREEN BAY      FAIR      84  61  45 SW14      30.07F HX  84
MANITOWOC      FAIR      68  54  60 SE9       30.10F
APPLETON       MOSUNNY   82  55  39 S13       30.07F HX  82
CLINTONVILLE   FAIR      85  57  37 S14       30.05F HX  84
OSHKOSH        FAIR      84  63  49 S12       30.07F HX  85
$$

WIZ032>034-041-042-053>061-242100-
SOUTHWEST WISCONSIN

CITY           SKY/WX    TMP DP  RH WIND       PRES   REMARKS
LA CROSSE      FAIR      88  67  49 S14       30.01F HX  91
SPARTA         FAIR      84  64  50 S10G16    30.04F HX  86
VIROQUA        PTSUNNY   84  64  50 S10       30.06F HX  85
BOSCOBEL       FAIR      87  65  47 S7        30.05F HX  89
PRAIRIE DU CHI FAIR      86  61  42 SE7       30.03F HX  86
PLATTEVILLE    FAIR      83  67  59 S9G16     30.09F HX  85
$$

WIZ056-057-062-063-064-067-068-242100-
SOUTH CENTRAL WISCONSIN

CITY           SKY/WX    TMP DP  RH WIND       PRES   REMARKS
REEDSBURG      FAIR      85  64  48 S9G16     30.06F HX  86
BARABOO/DELLS  FAIR      86  57  37 S9G16     30.07F HX  85
LONE ROCK      FAIR      86  63  45 S10G21    30.05F HX  87
MINERAL POINT  FAIR      86  63  45 SW9G18    30.09F HX  87
MADISON        PTSUNNY   83  61  47 S9        30.07F HX  83
MIDDLETON      FAIR      86  59  40 SW9G16    30.08F HX  85
WATERTOWN      FAIR      85  61  45 S9G16     30.08F HX  85
MONROE         FAIR      82  55  39 S12       30.10S HX  82
JANESVILLE     MOSUNNY   88  57  35 S8        30.09F HX  86
$$

WIZ051-052-058>065-066-070>072-242100-
SOUTHEAST WISCONSIN

CITY           SKY/WX    TMP DP  RH WIND       PRES   REMARKS
MILWAUKEE      PTSUNNY   79  60  52 SE15      30.11F HX  80
WAUKESHA       SUNNY     81  55  41 SW6       30.12F HX  80
MILWAUKEE/TIMM SUNNY     84  50  30 S10       30.10F HX  82
RACINE         FAIR      76  55  48 S14       30.13F
BURLINGTON     FAIR      85  60  42 S7        30.11F HX  85
KENOSHA        FAIR      81  58  45 SE12      30.12F HX  81
FOND DU LAC    FAIR      84  59  42 SW10      30.08F HX  84
SHEBOYGAN      FAIR      77  56  48 SE10      30.10F
WEST BEND      FAIR      81  57  44 E10       30.08F HX  81
JUNEAU         FAIR      82  59  45 S8G20     30.10F HX  82
$$

LSZ147-162-242100-
LAKE SUPERIOR

STATION/POSITION TIME  TEMP    WIND        PRES    WAVE
                       AIR SEA DIR/SP/G            HT/PER
                 (UTC) (F)     (DEG/KT/KT) (MB)    (FT/S)
W MID LAKE BUOY  1950   45 36  120/  6/  6 1015.7F   0
DEVILS ISLAND    2000   47      70/  4/  5 1015.4F
SAXON HARBOR     1930   60     340/  2/  2 1014.9F
$$

LMZ867-665-643>646-242100-
LAKE MICHIGAN

STATION/POSITION TIME  TEMP    WIND        PRES    WAVE
                       AIR SEA DIR/SP/G            HT/PER
                 (UTC) (F)     (DEG/KT/KT) (MB)    (FT/S)
N MID LAKE BUOY  2000   43 38  190/  8/  8 1019.1
NORTHPORT PIER   1940   62     150/  4/  6 1018.6F
KEWAUNEE LAKESHO 1954   51     170/ 13/ 14 1018.5F
SHEBOYGAN LAKESH 2000   53     170/ 18/ 19 1019.2F
PORT WASHINGTON  1930   57     130/  4/  5 1021.0F
ATWATER BUOY     1937   56 51  180/  8/ 12 1019.6F   1/ 3
MILWAUKEE LAKESH 2000   56     140/ 11/ 12   N/A
S MID LAKE BUOY  1950   55 40  140/  8/  8 1021.0F   0
KENOSHA   LAKESH 2000   63                 1019.6
$$

TC  - TEMPERATURE IN CELSIUS
VSB - VISIBILITY IN STATUTE MILES
WCI - WIND CHILL INDEX
HX  - HEAT INDEX





USA.gov is the U.S. government's official web portal to all federal, state and local government web resources and services.